Regional Weather Roundup
Issued by NWS Midland/Odessa, TX

Home | Current Version | Previous Version | Text Only | Print | Product List | Glossary On
Versions: 1 2 3 4 5 6 7 8 9 10 11 12 13 14 15 16 17 18 19 20 21 22 23 24 25 26 27 28 29 30 31 32 33 34 35 36 37 38 39 40 41 42 43 44 45 46 47 48 49 50
000
ASUS44 KMAF 270210
RWRMAF
MIDLAND AREA WEATHER ROUNDUP
NATIONAL WEATHER SERVICE MIDLAND TX
800 PM CST WED NOV 26 2014

...IN SOUTHWEST TEXAS AND SOUTHEAST NEW MEXICO...

CITY           SKY/WX    TMP DP  RH WIND       PRES   REMARKS
ALPINE         CLEAR     48  21  34 CALM      30.38R
ANDREWS        FAIR      43  28  56 E3        30.32R
ARTESIA        NOT AVBL
BIG SPRING     CLEAR     45  32  60 NE8       30.34R
CARLSBAD       CLEAR     52  25  35 SE8       30.27R
DRYDEN           N/A     57  24  28 N9        30.26R
FORT STOCKTON  CLEAR     53  23  31 SE8       30.29R
GUAD PASS      CLEAR     51  21  30 NE14      30.35R
HOBBS          CLEAR     45  28  53 E6        30.32R
MARFA          CLEAR     39  18  41 NE7       30.34R WCI  34
MIDLAND AIRPK  CLEAR     48  34  57 NE5       30.33R HAZE
MIDLAND INTL   CLEAR     49  30  48 NE10      30.31R
ODESSA         CLEAR     47  28  47 E10       30.31R
PECOS          CLEAR     51  25  36 E6        30.27R
PRESIDIO       FAIR      54  23  30 N15       30.27R
SEMINOLE       CLEAR     44  28  55 E6        30.33R
SNYDER         CLEAR     47  33  57 NE5       30.35R
WINK           CLEAR     52  25  35 E8        30.27R
$$
...OTHER STATIONS IN TEXAS...

CITY           SKY/WX    TMP DP  RH WIND       PRES   REMARKS
ABILENE        CLEAR     49  35  58 E5        30.34R
AMARILLO       CLEAR     40  23  50 E6        30.35R WCI  36
AUSTIN         CLEAR     57  36  45 NE7       30.27R
BROWNSVILLE    CLEAR     56  50  80 SE5       30.29R
CORPUS CHRISTI CLEAR     58  51  78 S8        30.26R
DALLAS FTW     CLEAR     54  35  48 NW10      30.30R
DEL RIO        CLEAR     58  33  39 CALM      30.23R
EL PASO        CLEAR     54  21  27 SW3       30.28R
HOUSTON INT    CLEAR     54  43  66 S3        30.26R
LUBBOCK        CLEAR     39  26  59 E7        30.32R WCI  34
SAN ANGELO     CLEAR     49  32  52 E7        30.32R
SAN ANTONIO    CLEAR     57  40  52 NW5       30.25R
WACO           CLEAR     53  35  50 NW7       30.30R
WICHITA FALLS  NOT AVBL
$$
...OTHER LOCATIONS IN NEW MEXICO...

CITY           SKY/WX    TMP DP  RH WIND       PRES   REMARKS
ALAMAGORDO     CLEAR     48  19  32 MISG      30.29R
ALBUQUERQUE    PTCLDY    53  23  31 NW5       30.36R
CANNON AFB     CLEAR     39  26  60 E8        30.31R WCI  33
CLOVIS         CLEAR     37  23  56 SE7       30.31R WCI  32
HOLLOMAN AFB   CLEAR     46  20  35 N6        30.29R
ROSWELL        CLEAR     45  26  47 SW6       30.27R
RUIDOSO        CLEAR     46  19  34 NW13G20   30.38S
SANTA FE       PTCLDY    37  18  46 NE9       30.36R WCI  30
TRUTH OR CONSE CLEAR     52  20  28 N3        30.32R
TUCUMCARI      CLEAR     38  27  64 NE6       30.29R WCI  33
$$


USA.gov is the U.S. government's official web portal to all federal, state and local government web resources and services.